Regional Weather Roundup
Issued by NWS

Home | Current Version | Previous Version | Text Only | Print | Product List | Glossary Off
Versions: 1 2 3 4 5 6 7 8 9 10 11 12 13 14 15 16 17 18 19 20 21 22 23 24 25 26 27 28 29 30 31 32 33 34 35 36 37 38 39 40 41 42 43 44 45 46 47 48 49 50

000
ASUS43 KOAX 162210
RWRNE

WEATHER ROUNDUP FOR NEBRASKA
NATIONAL WEATHER SERVICE OMAHA NE
400 PM CST TUE JAN 16 2018

NOTES: SATELLITE DATA IS BEING USED TO AUGMENT CLOUD COVER ABOVE
       12000 FEET.
       "FAIR" INDICATES FEW OR NO CLOUDS BELOW 12,000 FEET WITH NO
       SIGNIFICANT WEATHER AND/OR OBSTRUCTIONS TO VISIBILITY.


NEZ001>004-019>022-054>056-162300-
NEBRASKA PANHANDLE

CITY           SKY/WX    TMP DP  RH WIND       PRES   REMARKS
SCOTTSBLUFF    SUNNY     13   5  70 SE10      30.36F WCI   0
ALLIANCE       SUNNY     22   6  50 S9        30.36F WCI  12
CHADRON        SUNNY     29   9  43 S9        30.35F WCI  20
GORDON         FAIR      22   2  41 SW12      30.38S WCI  11
KIMBALL        SUNNY     33   0  24 SW8       30.32F WCI  26
SIDNEY         SUNNY     27   6  41 S15       30.37F WCI  15
$$

NEZ057>060-069>072-079>082-162300-
SOUTHWEST NEBRASKA

CITY           SKY/WX    TMP DP  RH WIND       PRES   REMARKS
NORTH PLATTE   SUNNY     15  -1  49 SW6       30.54F WCI   6
IMPERIAL       SUNNY     21  -1  38 VRB5      30.49F WCI  15
LEXINGTON      SUNNY     17   2  52 SW3       30.58F
MCCOOK         SUNNY     17   2  51 CALM      30.57F
OGALLALA       SUNNY     25   2  38 S8        30.47S WCI  16
$$

NEZ005>010-023>029-035>040-094-162300-
NORTH CENTRAL NEBRASKA

CITY           SKY/WX    TMP DP  RH WIND       PRES   REMARKS
VALENTINE      SUNNY     20   3  48 S13       30.47F WCI   7
AINSWORTH      SUNNY     14   2  59 S12       30.50F WCI   0
BROKEN BOW     SUNNY     13  -1  54 S8        30.56F WCI   2
O`NEILL        SUNNY     11   2  66 SW8       30.59F WCI   0
ORD            SUNNY     14   1  56 SW8       30.60F WCI   3
THEDFORD       SUNNY     18   0  45 SW8       30.49F WCI   8
$$

NEZ041-046>049-061>064-073>077-083>087-162300-
SOUTH CENTRAL NEBRASKA

CITY           SKY/WX    TMP DP  RH WIND       PRES   REMARKS
GRAND ISLAND   SUNNY     12   3  67 W3        30.65F
AURORA         SUNNY     12   2  65 NW7       30.65F WCI   1
HASTINGS       SUNNY     12   2  64 NW7       30.66S WCI   1
HEBRON         SUNNY     14   6  69 NW7       30.70S WCI   4
HOLDREGE       SUNNY     16   3  56 CALM      30.60F
KEARNEY        SUNNY     13   2  61 CALM      30.63F
YORK           SUNNY     14   5  67 CALM      30.67S
$$

NEZ011>018-030>034-042>045-162300-
NORTHEAST NEBRASKA

CITY           SKY/WX    TMP DP  RH WIND       PRES   REMARKS
NORFOLK        SUNNY     12   0  58 NW5       30.63F WCI   4
ALBION         SUNNY     16   2  54 W3        30.63F
BLAIR          SUNNY     10   3  72 W6        30.68S WCI   1
COLUMBUS       SUNNY     14   3  61 NW7       30.68F WCI   4
FREMONT        SUNNY     13   4  67 NW8       30.70S WCI   1
TEKAMAH        SUNNY     10   0  63 NW7       30.71F WCI  -1
WAYNE          SUNNY     10   0  63 NW8       30.66F WCI  -1
$$

NEZ050>053-065>068-078-088>093-162300-
SOUTHEAST NEBRASKA

CITY           SKY/WX    TMP DP  RH WIND       PRES   REMARKS
LINCOLN        SUNNY     16   4  59 N6        30.71S WCI   7
OMAHA EPPLEY   SUNNY     11   1  64 NW9       30.71F WCI  -2
BEATRICE       SUNNY     15   7  68 NW9       30.69F WCI   3
FALLS CITY     MOSUNNY    8   0  69 NW9       30.73R WCI  -5
NEBRASKA CITY  SUNNY      9   3  77 N6        30.70F WCI  -1
PLATTSMOUTH    SUNNY     10   3  73 NW7       30.69F WCI  -1
$$

NEZ044-045-051>053-067-162300-
OMAHA AREA

CITY           SKY/WX    TMP DP  RH WIND       PRES   REMARKS
OMAHA EPPLEY   SUNNY     11   1  64 NW9       30.71F WCI  -2
BLAIR          SUNNY     10   3  72 W6        30.68S WCI   1
FREMONT        SUNNY     13   4  67 NW8       30.70S WCI   1
MILLARD        SUNNY     13   4  65 NW7       30.71F WCI   3
OFFUTT AFB     SUNNY     11   1  64 NW7       30.71S WCI   0
PLATTSMOUTH    SUNNY     10   3  73 NW7       30.69F WCI  -1
WAHOO          FAIR      13   4  66 N9        30.69F WCI   1
$$



USA.gov is the U.S. government's official web portal to all federal, state and local government web resources and services.